[[{"header":{"parameterUnit":"m.s-1","parameterCategory":1,"la1":30.2991,"la2":30.254,"lo1":-89.0895,"lo2":-89.0444,"dy":0.0017,"dx":0.0017,"nx":28,"ny":28,"refTime":"2024-08-21T09:00:00:Z","depth":0,"parameterNumber":2,"parameterNumberName":"U-component_of_WINDS"},"data":[0,0,0,0,0,0,0,0,0,0,0,0,0,0,0,0,0,0,0,0,0,0,0,0,0,0,0,0,0,0,0,0,0,0,0,0,0,0,0,0,0,0,0,0,0,0,0,0,0,0,0,0,0,0,0,0,0,0,-5.4335,-5.4336,0,-5.4387,-5.4388,-5.4388,-5.4236,-5.4231,-5.4226,-5.4222,-5.4273,-5.4279,-5.4284,0,0,0,0,0,0,0,0,0,0,0,0,0,-5.4101,-5.4106,-5.4335,-5.4336,-5.4337,-5.4387,-5.4388,-5.4388,-5.4237,-5.4231,-5.4225,-5.422,-5.4271,-5.4278,-5.4285,0,0,0,0,0,0,0,0,0,0,0,0,0,-5.4183,-5.4108,-5.4335,-5.4267,-5.4261,-5.4387,-5.4388,-5.4389,-5.4238,-5.4231,-5.4224,-5.4217,-5.4269,-5.4277,-5.4286,-5.4479,0,0,-5.4312,-5.4316,0,0,0,0,0,0,0,0,-5.4179,-5.4192,-5.4276,-5.4272,-5.4266,-5.4298,-5.4324,-5.4419,-5.424,-5.4247,-5.4222,-5.4214,-5.4287,-5.4294,-5.4319,-5.4481,-5.4484,-5.4313,-5.4318,-5.4322,-5.4324,0,0,0,0,0,0,0,-5.4173,-5.4189,-5.4355,-5.4278,-5.4271,-5.4233,-5.4236,-5.4341,-5.4305,-5.4246,-5.4235,-5.4243,-5.4283,-5.4311,-5.4319,-5.4484,-5.4312,-5.432,-5.4325,-5.4329,-5.4805,-5.4812,0,0,0,0,0,0,-5.4177,-5.4185,-5.4354,-5.4357,-5.4204,-5.4243,-5.4247,-5.4295,-5.4304,-5.4299,-5.4249,-5.4236,-5.4299,-5.4309,-5.432,-5.4544,-5.4322,-5.433,-5.4334,-5.4798,-5.4807,-5.4815,0,0,0,0,0,0,-5.4172,-5.4193,-5.4352,-5.4268,-5.4285,-5.4254,-5.4309,-5.4299,-5.4327,-5.4306,-5.4299,-5.4284,-5.4294,-5.4308,-5.444,-5.4544,-5.4333,-5.4341,-5.4789,-5.4801,-5.4811,-5.4997,0,0,0,0,0,0,-5.4166,-5.4193,-5.4266,-5.4271,-5.429,-5.4473,-5.4315,-5.4305,-5.4343,-5.4326,-5.4338,-5.4333,-5.429,-5.4428,-5.4449,-5.4552,-5.4348,-5.4779,-5.4794,-5.4807,-5.4981,-5.5013,-5.504,0,0,0,0,0,-5.4158,-5.4317,-5.4271,-5.4292,-5.4382,-5.4479,-5.449,-5.4438,-5.4352,-5.4425,-5.4411,-5.4332,-5.453,-5.4443,-5.4465,-5.4572,-5.4773,-5.479,-5.4806,-5.4968,-5.5007,-5.5039,0,0,0,0,0,0,-5.4325,-5.4316,-5.4265,-5.443,-5.4457,-5.4453,-5.4544,-5.4481,-5.4532,-5.4514,-5.4446,-5.445,-5.4595,-5.4597,-5.45,-5.4758,-5.4636,-5.4658,-5.4751,-5.4788,-5.4817,-5.4813,-5.4355,0,0,0,0,0,-5.4381,-5.4461,-5.4449,-5.4595,-5.4611,-5.4576,-5.4616,-5.4574,-5.4598,-5.4608,-5.4604,-5.463,-5.4697,-5.4743,-5.4804,-5.4981,-5.498,-5.5066,-5.5095,-5.512,-5.5139,-5.523,-5.5267,-5.4871,-5.487,-5.487,0,0,-5.4497,-5.4502,-5.4557,-5.4629,-5.4644,-5.4727,-5.4586,-5.4681,-5.4741,-5.4622,-5.4746,-5.4745,-5.4769,-5.4924,-5.4992,-5.493,-5.5248,-5.5141,-5.5161,-5.5167,-5.5251,-5.5289,-5.5322,-5.4882,-5.488,-5.4878,0,0,-5.475,-5.4764,-5.4886,-5.4904,-5.493,-5.4905,-5.4935,-5.4941,-5.4935,-5.5059,-5.4971,-5.5042,-5.516,-5.518,-5.5206,-5.5467,-5.5395,-5.5489,-5.5642,-5.5732,-5.5763,-5.579,-5.5881,-5.5915,-5.5509,-5.5509,-5.5509,0,-5.4891,-5.5014,-5.4957,-5.5057,-5.509,-5.4987,-5.5109,-5.513,-5.5174,-5.5199,-5.5129,-5.5274,-5.5284,-5.544,-5.5504,-5.553,-5.5559,-5.5486,-5.5764,-5.579,-5.5815,-5.59,-5.5935,-5.552,-5.5519,-5.5518,-5.5517,0,-5.5184,-5.5271,-5.5366,-5.5411,-5.5456,-5.5567,-5.5525,-5.5577,-5.5531,-5.5513,-5.5639,-5.5647,-5.5707,-5.5741,-5.5698,-5.5892,-5.5852,-5.5775,-5.565,-5.5865,-5.5944,-5.5976,-5.5536,-5.5532,-5.5529,-5.5526,0,0,-5.5542,-5.5555,-5.5591,-5.5609,-5.5629,-5.5694,-5.58,-5.5859,-5.5903,-5.5938,-5.6023,-5.6125,-5.6053,-5.6082,-5.604,-5.6119,-5.6322,-5.6031,-5.603,-5.6082,-5.6534,-5.659,-5.6629,-5.6276,-5.6282,-5.6287,-5.6531,0,-5.579,-5.5971,-5.5923,-5.6103,-5.6181,-5.6084,-5.6176,-5.6198,-5.6184,-5.6247,-5.6232,-5.6304,-5.6205,-5.6222,-5.6296,-5.6282,-5.6411,-5.6264,-5.6352,-5.6356,-5.6346,-5.6671,-5.6731,-5.6961,-5.6562,-5.6567,-5.6571,0,-5.6102,-5.6149,-5.6337,-5.6343,-5.6374,-5.6457,-5.6506,-5.6569,-5.6591,-5.6575,-5.6609,-5.655,-5.6652,-5.6529,-5.6667,-5.6568,-5.6602,-5.66,-5.6608,-5.6612,-5.6474,-5.6681,-5.7033,-5.7067,-5.6619,-5.6615,-5.6612,0,-5.6341,-5.6451,-5.6577,-5.6596,-5.6607,-5.6668,-5.6675,-5.669,-5.6728,-5.6772,-5.6795,-5.685,-5.6879,-5.6922,-5.6879,-5.6794,-5.7024,-5.6898,-5.7011,-5.7013,-5.7062,-5.7059,-5.7422,-5.7089,-5.7089,-5.7088,-5.7087,0,-5.6621,-5.6739,-5.6684,-5.6762,-5.6891,-5.6834,-5.6963,-5.6959,-5.6973,-5.7047,-5.6968,-5.7038,-5.6978,-5.7043,-5.701,-5.7128,-5.7143,-5.7132,-5.7121,-5.7137,-5.7139,-5.7156,-5.7138,-5.7097,-5.7095,-5.7093,-5.7092,0,-5.6908,-5.6877,-5.7007,-5.7007,-5.701,-5.7105,-5.7104,-5.7175,-5.7156,-5.725,-5.7269,-5.7239,-5.7311,-5.7273,-5.7348,-5.7325,-5.7478,-5.7447,-5.747,-5.7461,-5.7576,-5.7565,-5.7961,-5.8008,-5.7648,-5.7652,-5.7655,0,-5.7088,-5.7176,-5.7186,-5.723,-5.7243,-5.7315,-5.7353,-5.7301,-5.7344,-5.7375,-5.7442,-5.7508,-5.7557,-5.7677,-5.766,-5.7717,-5.7685,-5.782,-5.7692,-5.7705,-5.7683,-5.7677,-5.7684,-5.7844,-5.7849,-5.7852,-5.7855,0,-5.7408,-5.7388,-5.7446,-5.7501,-5.7549,-5.7588,-5.7621,-5.7661,-5.7609,-5.7662,-5.7735,-5.7773,-5.785,-5.7915,-5.7963,-5.7969,-5.7903,-5.7896,-5.7924,-5.794,-5.7949,-5.7942,-5.7537,-5.7886,-5.7883,-5.788,-5.7879,-5.7878,-5.7644,-5.7717,-5.7736,-5.7803,-5.7823,-5.7855,-5.7921,-5.7911,-5.7971,-5.8029,-5.7994,-5.808,-5.8098,-5.8156,-5.8171,-5.8236,-5.8181,-5.8224,-5.8234,-5.8245,-5.8259,-5.7942,-5.8245,-5.8244,-5.8243,-5.8242,-5.8241,0,-5.7957,-5.7964,-5.8028,-5.8076,-5.8129,-5.8064,-5.8097,-5.8145,-5.8222,-5.8245,-5.8295,-5.8378,-5.8441,-5.8431,-5.8487,-5.8541,-5.8512,-5.8557,-5.8551,-5.8553,-5.8306,-5.8274,-5.858,-5.858,-5.858,-5.858,-5.858,-5.8579,-5.8126,-5.8246,-5.8228,-5.8357,-5.8362,-5.8446,-5.847,-5.8498,-5.8516,-5.8613,-5.8665,-5.8658,-5.8667,-5.8724,-5.8778,-5.8773,-5.8796,-5.8852,-5.8836,-5.8604,-5.8571,-5.8539,-5.8508,-5.8859,-5.8859,-5.9077,-5.9079,-5.9081]},{"header":{"parameterUnit":"m.s-1","parameterCategory":1,"la1":30.2991,"la2":30.254,"lo1":-89.0895,"lo2":-89.0444,"dy":0.0017,"dx":0.0017,"nx":28,"ny":28,"refTime":"2024-08-21T09:00:00:Z","depth":0,"parameterNumber":3,"parameterNumberName":"V-component_of_WINDS"},"data":[0,0,0,0,0,0,0,0,0,0,0,0,0,0,0,0,0,0,0,0,0,0,0,0,0,0,0,0,0,0,0,0,0,0,0,0,0,0,0,0,0,0,0,0,0,0,0,0,0,0,0,0,0,0,0,0,0,0,-1.8219,-1.8219,0,-1.824,-1.8241,-1.8241,-1.8258,-1.8259,-1.8259,-1.8259,-1.8281,-1.8282,-1.8282,0,0,0,0,0,0,0,0,0,0,0,0,0,-1.819,-1.8191,-1.8219,-1.8219,-1.8219,-1.824,-1.8241,-1.8241,-1.8258,-1.8259,-1.8259,-1.8259,-1.8281,-1.8282,-1.8282,0,0,0,0,0,0,0,0,0,0,0,0,0,-1.8206,-1.8191,-1.8219,-1.823,-1.8232,-1.824,-1.8241,-1.8241,-1.8258,-1.8259,-1.8259,-1.8259,-1.8281,-1.8281,-1.8282,-1.8281,0,0,-1.8284,-1.8284,0,0,0,0,0,0,0,0,-1.8205,-1.8207,-1.8228,-1.823,-1.8231,-1.8247,-1.8239,-1.8254,-1.8258,-1.8248,-1.8259,-1.8259,-1.827,-1.8271,-1.8275,-1.8282,-1.8283,-1.8284,-1.8284,-1.8285,-1.8285,0,0,0,0,0,0,0,-1.8204,-1.8206,-1.8227,-1.8229,-1.823,-1.8234,-1.8237,-1.8242,-1.8257,-1.8249,-1.825,-1.8253,-1.827,-1.8274,-1.8275,-1.8283,-1.8284,-1.8285,-1.8285,-1.8285,-1.8286,-1.8286,0,0,0,0,0,0,-1.8201,-1.8205,-1.8227,-1.8228,-1.8219,-1.8234,-1.8237,-1.8242,-1.8257,-1.826,-1.8253,-1.8254,-1.8273,-1.8275,-1.8276,-1.8273,-1.8285,-1.8285,-1.8286,-1.8286,-1.8286,-1.8286,0,0,0,0,0,0,-1.8201,-1.8203,-1.8226,-1.8217,-1.822,-1.8234,-1.8239,-1.8242,-1.8246,-1.826,-1.8262,-1.8254,-1.8273,-1.8275,-1.8279,-1.8274,-1.8286,-1.8286,-1.8287,-1.8286,-1.8286,-1.8268,0,0,0,0,0,0,-1.82,-1.8203,-1.8203,-1.8217,-1.8221,-1.8228,-1.8239,-1.8242,-1.8247,-1.8248,-1.8261,-1.8264,-1.8273,-1.8277,-1.8279,-1.8275,-1.8287,-1.8287,-1.8287,-1.8286,-1.8269,-1.8267,-1.8265,0,0,0,0,0,-1.8199,-1.8198,-1.8203,-1.8206,-1.8221,-1.8228,-1.823,-1.8241,-1.8246,-1.8246,-1.8254,-1.8263,-1.8274,-1.8278,-1.828,-1.8276,-1.8288,-1.8287,-1.8286,-1.827,-1.8268,-1.8265,0,0,0,0,0,0,-1.8185,-1.82,-1.8206,-1.821,-1.8217,-1.8231,-1.8232,-1.8239,-1.8245,-1.8246,-1.826,-1.8263,-1.8264,-1.827,-1.8274,-1.8273,-1.8282,-1.8282,-1.8269,-1.8267,-1.8265,-1.8263,-1.8287,0,0,0,0,0,-1.8182,-1.8186,-1.82,-1.8202,-1.8205,-1.8217,-1.8221,-1.8228,-1.8237,-1.824,-1.8249,-1.8257,-1.8262,-1.8265,-1.827,-1.827,-1.8272,-1.8268,-1.8266,-1.8265,-1.8264,-1.8262,-1.8259,-1.8283,-1.8283,-1.8283,0,0,-1.8176,-1.8185,-1.8188,-1.8199,-1.8206,-1.8209,-1.822,-1.8224,-1.8226,-1.8241,-1.8244,-1.8251,-1.826,-1.826,-1.8261,-1.8266,-1.8258,-1.8264,-1.8262,-1.8263,-1.826,-1.8258,-1.8256,-1.8282,-1.8283,-1.8283,0,0,-1.8168,-1.8176,-1.8177,-1.8183,-1.8193,-1.82,-1.82,-1.8212,-1.8217,-1.822,-1.823,-1.8232,-1.8241,-1.8246,-1.825,-1.824,-1.8247,-1.8241,-1.8231,-1.8228,-1.8226,-1.8225,-1.8219,-1.8217,-1.8241,-1.824,-1.824,0,-1.816,-1.8166,-1.8177,-1.8179,-1.8183,-1.8195,-1.8195,-1.8201,-1.8211,-1.8213,-1.8218,-1.8227,-1.8234,-1.8235,-1.8232,-1.8236,-1.8235,-1.824,-1.8226,-1.8224,-1.8223,-1.8217,-1.8215,-1.824,-1.824,-1.824,-1.824,0,-1.8155,-1.8158,-1.8158,-1.8167,-1.817,-1.8172,-1.8182,-1.8184,-1.819,-1.8197,-1.8198,-1.8207,-1.8213,-1.8213,-1.8221,-1.8214,-1.8216,-1.8223,-1.8232,-1.822,-1.8214,-1.8213,-1.8238,-1.8239,-1.8239,-1.8239,0,0,-1.814,-1.8152,-1.8152,-1.8155,-1.8164,-1.8167,-1.8168,-1.8173,-1.8173,-1.818,-1.8179,-1.8185,-1.819,-1.8194,-1.8202,-1.82,-1.8187,-1.8206,-1.8207,-1.8201,-1.8178,-1.8172,-1.817,-1.8193,-1.8192,-1.8192,-1.8177,0,-1.8132,-1.8134,-1.8143,-1.8142,-1.8144,-1.8153,-1.8154,-1.8159,-1.8164,-1.8166,-1.8172,-1.8175,-1.8183,-1.8185,-1.8183,-1.8189,-1.8183,-1.8191,-1.8191,-1.8191,-1.8187,-1.8167,-1.8162,-1.8147,-1.8175,-1.8175,-1.8175,0,-1.8124,-1.8128,-1.8127,-1.8133,-1.8134,-1.8135,-1.8138,-1.814,-1.8145,-1.8149,-1.8152,-1.8159,-1.8159,-1.8167,-1.8165,-1.817,-1.817,-1.8173,-1.8173,-1.8173,-1.8182,-1.8165,-1.8143,-1.814,-1.8172,-1.8172,-1.8172,0,-1.8111,-1.8116,-1.8115,-1.8118,-1.8126,-1.8125,-1.8128,-1.8134,-1.8135,-1.8138,-1.8138,-1.8141,-1.8143,-1.8144,-1.8152,-1.8157,-1.8148,-1.8158,-1.815,-1.815,-1.8148,-1.8148,-1.8124,-1.815,-1.815,-1.815,-1.815,0,-1.8101,-1.81,-1.8109,-1.8109,-1.8106,-1.8115,-1.8112,-1.8116,-1.812,-1.8119,-1.8128,-1.8127,-1.8137,-1.8137,-1.8143,-1.8139,-1.814,-1.8142,-1.8143,-1.8141,-1.814,-1.8141,-1.8141,-1.8149,-1.8149,-1.815,-1.815,0,-1.8087,-1.8094,-1.8093,-1.8099,-1.8101,-1.8098,-1.8103,-1.8102,-1.8107,-1.8106,-1.8106,-1.8113,-1.8113,-1.812,-1.8122,-1.8126,-1.8119,-1.8123,-1.8117,-1.8117,-1.8109,-1.8109,-1.8083,-1.8079,-1.8109,-1.8109,-1.8109,0,-1.808,-1.8079,-1.8084,-1.8084,-1.8086,-1.8086,-1.8087,-1.8094,-1.8094,-1.8097,-1.8095,-1.8095,-1.8096,-1.8095,-1.81,-1.81,-1.8103,-1.8094,-1.8104,-1.81,-1.8101,-1.81,-1.8099,-1.8092,-1.8092,-1.8092,-1.8091,0,-1.8066,-1.8068,-1.8069,-1.8069,-1.807,-1.8071,-1.8072,-1.8071,-1.8079,-1.8078,-1.8077,-1.8077,-1.8077,-1.8077,-1.8077,-1.808,-1.8086,-1.8088,-1.8086,-1.8083,-1.8079,-1.8079,-1.811,-1.8089,-1.8089,-1.8089,-1.8089,-1.8089,-1.8055,-1.8052,-1.8055,-1.8054,-1.8055,-1.8056,-1.8054,-1.8057,-1.8056,-1.8056,-1.806,-1.8058,-1.806,-1.8061,-1.8062,-1.806,-1.8064,-1.8062,-1.8061,-1.806,-1.8057,-1.8079,-1.806,-1.806,-1.8061,-1.8061,-1.8061,0,-1.804,-1.8041,-1.804,-1.804,-1.8039,-1.8044,-1.8045,-1.8043,-1.804,-1.8041,-1.8041,-1.8038,-1.8036,-1.804,-1.8038,-1.8035,-1.8038,-1.8035,-1.8034,-1.8034,-1.8055,-1.8056,-1.8032,-1.8032,-1.8032,-1.8032,-1.8032,-1.8032,-1.8032,-1.8028,-1.8029,-1.8025,-1.8026,-1.8023,-1.8022,-1.8022,-1.8022,-1.8018,-1.8016,-1.8018,-1.8019,-1.8017,-1.8015,-1.8016,-1.8014,-1.801,-1.8012,-1.8031,-1.8033,-1.8036,-1.8037,-1.801,-1.801,-1.7991,-1.7991,-1.7991]}]]